FW7740 Weather Reports


Display with metric or nautical units.
time (UTC)temp
F
wind
direction
speed
MPH
gust
MPH
rain 1hr
in
rain 24hr
in
rain mn
in
humidity
%
barometer
mb
20260507163908 64 120 2.0 2.0 0.00 0.00 0.00 32 1019.1
20260507163406 65 179 5.0 6.0 0.00 0.00 0.00 31 1019.4
20260507162902 65 170 3.0 5.0 0.00 0.00 0.00 32 1019.4
20260507162357 65 112 1.0 1.0 0.00 0.00 0.00 31 1019.4
20260507161855 64 31 2.0 3.0 0.00 0.00 0.00 31 1019.4
20260507161351 62 152 2.0 2.0 0.00 0.00 0.00 32 1019.4
20260507160848 63 164 7.0 8.0 0.00 0.00 0.00 33 1019.1
20260507160343 63 57 2.0 3.0 0.00 0.00 0.00 33 1019.4
20260507155840 63 166 0.0 0.0 0.00 0.00 0.00 34 1019.1
20260507155336 62 224 5.0 6.0 0.00 0.00 0.00 37 1019.4
20260507154833 63 1 4.0 6.0 0.00 0.00 0.00 34 1019.4
20260507154330 64 296 1.0 1.0 0.00 0.00 0.00 36 1019.8
20260507153827 63 324 1.0 1.0 0.00 0.00 0.00 36 1019.4
20260507153323 63 202 3.0 3.0 0.00 0.00 0.00 35 1019.8
20260507152820 64 218 3.0 3.0 0.00 0.00 0.00 37 1019.4
20260507152316 63 243 1.0 1.0 0.00 0.00 0.00 37 1019.8
20260507151812 62 129 2.0 2.0 0.00 0.00 0.00 37 1019.4
20260507151309 63 161 4.0 6.0 0.00 0.00 0.00 36 1019.8
20260507150806 62 346 1.0 1.0 0.00 0.00 0.00 36 1019.8
20260507150302 62 182 1.0 1.0 0.00 0.00 0.00 39 1019.8
20260507145759 61 234 3.0 3.0 0.00 0.00 0.00 41 1019.8
20260507145255 60 214 3.0 3.0 0.00 0.00 0.00 41 1019.8
20260507144752 60 158 5.0 6.0 0.00 0.00 0.00 41 1019.8
20260507144250 61 159 3.0 3.0 0.00 0.00 0.00 41 1019.8
20260507143746 61 49 0.0 1.0 0.00 0.00 0.00 41 1020.1
20260507143244 59 183 0.0 0.0 0.00 0.00 0.00 46 1019.8
20260507142739 59 168 2.0 2.0 0.00 0.00 0.00 47 1019.8
20260507142236 58 171 3.0 3.0 0.00 0.00 0.00 50 1020.1
20260507141732 58 194 2.0 2.0 0.00 0.00 0.00 51 1020.1
20260507141230 57 143 3.0 5.0 0.00 0.00 0.00 53 1020.1
20260507140725 57 181 3.0 3.0 0.00 0.00 0.00 59 1019.8
20260507140224 57 55 1.0 1.0 0.00 0.00 0.00 61 1020.4
20260507135720 56 53 0.0 0.0 0.00 0.00 0.00 63 1020.1
20260507135218 54 53 0.0 0.0 0.00 0.00 0.00 65 1020.1
20260507134714 54 53 0.0 0.0 0.00 0.00 0.00 65 1020.1
20260507134210 54 53 0.0 0.0 0.00 0.00 0.00 67 1020.1
20260507133706 52 53 0.0 0.0 0.00 0.00 0.00 70 1020.1
20260507133203 50 53 0.0 0.0 0.00 0.00 0.00 74 1020.1
20260507132700 50 54 1.0 1.0 0.00 0.00 0.00 77 1020.4
20260507132157 50 151 1.0 1.0 0.00 0.00 0.00 76 1020.4
20260507131654 49 233 0.0 0.0 0.00 0.00 0.00 77 1020.1
20260507131151 48 239 0.0 0.0 0.00 0.00 0.00 78 1020.4
20260507130647 47 239 0.0 0.0 0.00 0.00 0.00 79 1020.4
20260507130145 46 240 0.0 1.0 0.00 0.00 0.00 80 1020.4
20260507125644 46 240 1.0 1.0 0.00 0.00 0.00 81 1020.1
20260507125142 45 242 0.0 0.0 0.00 0.00 0.00 82 1020.4
20260507124637 44 243 0.0 0.0 0.00 0.00 0.00 87 1020.4
20260507124135 43 245 2.0 2.0 0.00 0.00 0.00 88 1020.4
20260507123633 42 253 1.0 1.0 0.00 0.00 0.00 89 1020.4
20260507123130 41 260 2.0 2.0 0.00 0.00 0.00 90 1020.1
20260507122625 41 261 1.0 1.0 0.00 0.00 0.00 90 1020.4
20260507122116 41 288 0.0 0.0 0.00 0.00 0.00 91 1020.4
20260507121612 40 288 0.0 0.0 0.00 0.00 0.00 91 1020.1
20260507121108 40 288 0.0 0.0 0.00 0.00 0.00 92 1020.1
20260507120604 39 288 0.0 0.0 0.00 0.00 0.00 93 1019.8
20260507115557 39 288 0.0 0.0 0.00 0.00 0.00 94 1020.1
20260507115053 39 286 0.0 0.0 0.00 0.00 0.00 94 1019.8
20260507114549 39 292 0.0 0.0 0.00 0.00 0.00 94 1019.8
20260507114047 38 300 0.0 0.0 0.00 0.00 0.00 95 1019.8
20260507113544 38 300 0.0 0.0 0.00 0.00 0.00 95 1019.8
20260507113041 38 300 0.0 0.0 0.00 0.00 0.00 94 1019.8
20260507112539 38 300 0.0 0.0 0.00 0.00 0.00 94 1019.8
20260507112035 38 300 0.0 0.0 0.00 0.00 0.00 94 1019.8
20260507111532 38 300 0.0 0.0 0.00 0.00 0.00 94 1019.8
20260507111029 38 300 0.0 0.0 0.00 0.00 0.00 94 1019.8
20260507110525 38 300 0.0 0.0 0.00 0.00 0.00 93 1019.4
20260507110022 38 300 0.0 0.0 0.00 0.00 0.00 93 1019.8
20260507105519 38 300 0.0 0.0 0.00 0.00 0.00 93 1019.8
20260507105015 38 300 0.0 0.0 0.00 0.00 0.00 93 1019.8
20260507104513 38 300 0.0 0.0 0.00 0.00 0.00 94 1019.8
20260507104008 38 300 0.0 0.0 0.00 0.00 0.00 94 1019.8
20260507103500 38 300 0.0 0.0 0.00 0.00 0.00 93 1019.4
20260507102955 38 300 0.0 0.0 0.00 0.00 0.00 93 1019.8
20260507102453 38 300 0.0 0.0 0.00 0.00 0.00 93 1019.8
20260507101949 38 300 0.0 0.0 0.00 0.00 0.00 93 1019.8
20260507101444 38 300 0.0 0.0 0.00 0.00 0.00 93 1019.8
20260507100940 38 300 0.0 0.0 0.00 0.00 0.00 93 1019.4
20260507100438 38 300 0.0 0.0 0.00 0.00 0.00 93 1019.8
20260507095936 38 300 0.0 0.0 0.00 0.00 0.00 93 1019.8
20260507095433 38 300 0.0 0.0 0.00 0.00 0.00 94 1019.8
20260507094924 37 300 0.0 0.0 0.00 0.00 0.00 94 1019.8
20260507094420 37 301 0.0 0.0 0.00 0.00 0.00 94 1019.8
20260507093917 37 301 0.0 0.0 0.00 0.00 0.00 94 1019.8
20260507093415 37 301 0.0 0.0 0.00 0.00 0.00 94 1019.4
20260507092914 37 300 0.0 0.0 0.00 0.00 0.00 95 1019.4
20260507092409 37 301 0.0 0.0 0.00 0.00 0.00 95 1019.4
20260507091906 37 301 0.0 0.0 0.00 0.00 0.00 95 1019.4
20260507091403 36 301 0.0 0.0 0.00 0.00 0.00 95 1019.8
20260507090858 36 301 0.0 0.0 0.00 0.00 0.00 95 1019.4
20260507090355 36 301 0.0 0.0 0.00 0.00 0.00 95 1019.4
20260507085852 36 301 0.0 0.0 0.00 0.00 0.00 95 1019.1
20260507085348 36 301 0.0 0.0 0.00 0.00 0.00 95 1019.4
20260507084846 36 301 0.0 0.0 0.00 0.00 0.00 94 1019.4
20260507084342 36 301 0.0 0.0 0.00 0.00 0.00 95 1019.1
20260507083840 36 301 0.0 0.0 0.00 0.00 0.00 94 1019.4
20260507083336 36 301 0.0 0.0 0.00 0.00 0.00 94 1019.4
20260507082832 36 301 0.0 0.0 0.00 0.00 0.00 94 1019.1
20260507082328 37 301 0.0 0.0 0.00 0.00 0.00 94 1019.4
20260507081825 37 299 0.0 0.0 0.00 0.00 0.00 95 1019.8
20260507081321 37 299 0.0 0.0 0.00 0.00 0.00 94 1019.4
20260507080818 37 300 0.0 0.0 0.00 0.00 0.00 94 1019.8
20260507080315 37 299 0.0 0.0 0.00 0.00 0.00 95 1019.8
20260507075810 37 299 1.0 1.0 0.00 0.00 0.00 94 1019.8
20260507075307 37 300 1.0 1.0 0.00 0.00 0.00 94 1019.8
20260507074803 37 307 0.0 0.0 0.00 0.00 0.00 94 1019.8
20260507074301 37 309 0.0 0.0 0.00 0.00 0.00 94 1019.8
20260507073757 37 310 0.0 0.0 0.00 0.00 0.00 95 1019.8
20260507073254 37 310 0.0 0.0 0.00 0.00 0.00 94 1020.1
20260507072751 37 310 0.0 0.0 0.00 0.00 0.00 94 1020.1
20260507072248 37 310 0.0 0.0 0.00 0.00 0.00 94 1020.1
20260507071745 37 310 0.0 0.0 0.00 0.00 0.00 94 1020.1
20260507071236 38 310 0.0 0.0 0.00 0.00 0.00 94 1020.1
20260507070733 38 310 0.0 0.0 0.00 0.00 0.00 94 1020.1
20260507070231 38 310 0.0 0.0 0.00 0.00 0.00 94 1020.1
20260507065727 38 310 0.0 0.0 0.00 0.00 0.00 94 1020.1
20260507065224 38 310 0.0 0.0 0.00 0.00 0.00 94 1020.1
20260507064721 38 310 0.0 0.0 0.00 0.00 0.00 93 1020.1
20260507064220 38 310 0.0 0.0 0.00 0.00 0.00 93 1020.1
20260507063717 39 310 0.0 0.0 0.00 0.00 0.00 94 1020.1
20260507063214 39 310 0.0 0.0 0.00 0.00 0.00 93 1019.8
20260507062710 39 310 0.0 0.0 0.00 0.00 0.00 93 1019.8
20260507062208 39 310 0.0 0.0 0.00 0.00 0.00 93 1019.8
20260507061706 39 310 1.0 1.0 0.00 0.00 0.00 94 1019.8
20260507061204 39 311 0.0 0.0 0.00 0.00 0.00 94 1019.8
20260507060702 39 311 0.0 0.0 0.00 0.00 0.00 94 1019.8
20260507060158 39 311 0.0 0.0 0.00 0.00 0.00 94 1020.1
20260507055654 39 341 1.0 1.0 0.00 0.00 0.00 93 1020.1
20260507055150 39 341 0.0 0.0 0.00 0.00 0.00 94 1020.1
20260507054646 39 341 0.0 0.0 0.00 0.00 0.00 94 1020.4
20260507054143 39 341 0.0 0.0 0.00 0.00 0.00 94 1020.4
20260507053641 40 341 0.0 0.0 0.00 0.00 0.00 94 1020.1
20260507053138 40 341 0.0 0.0 0.00 0.00 0.00 94 1020.1
20260507052636 40 341 0.0 0.0 0.00 0.00 0.00 94 1019.8
20260507052127 40 341 0.0 0.0 0.00 0.00 0.00 94 1020.1
20260507051624 40 341 0.0 0.0 0.00 0.00 0.00 93 1019.8
20260507051121 40 341 0.0 0.0 0.00 0.00 0.00 93 1020.1
20260507050618 40 341 0.0 0.0 0.00 0.00 0.00 93 1019.8
20260507050115 41 341 0.0 0.0 0.00 0.00 0.00 93 1019.8
20260507045612 41 341 0.0 0.0 0.00 0.01 0.01 93 1019.8
20260507045108 41 341 0.0 0.0 0.00 0.01 0.01 93 1019.8
20260507044605 41 341 0.0 0.0 0.00 0.01 0.01 93 1019.8
20260507044102 41 341 0.0 0.0 0.00 0.01 0.01 93 1019.8
20260507043557 41 341 0.0 0.0 0.00 0.01 0.01 93 1019.8
20260507043055 41 341 0.0 0.0 0.00 0.01 0.01 93 1019.8
20260507042551 41 341 0.0 0.0 0.00 0.01 0.01 93 1019.8
20260507042046 41 341 0.0 0.0 0.00 0.01 0.01 93 1019.8
20260507041544 41 341 0.0 0.0 0.00 0.01 0.01 92 1019.8
20260507041041 42 341 0.0 0.0 0.00 0.01 0.01 92 1019.8
20260507040537 42 341 0.0 0.0 0.00 0.01 0.01 92 1019.8
20260507040033 42 341 0.0 0.0 0.00 0.01 0.01 91 1019.8
20260507035529 42 341 0.0 0.0 0.00 0.01 0.01 91 1019.8
20260507035026 42 341 0.0 0.0 0.00 0.01 0.01 91 1019.8
20260507034523 42 341 0.0 0.0 0.00 0.01 0.01 91 1019.8
20260507034021 43 341 0.0 0.0 0.00 0.01 0.01 91 1019.8
20260507033518 43 341 0.0 0.0 0.00 0.01 0.01 90 1019.8
20260507033016 43 341 0.0 0.0 0.00 0.01 0.01 90 1019.8
20260507032512 43 341 0.0 0.0 0.00 0.01 0.01 89 1019.8
20260507032009 43 341 0.0 0.0 0.00 0.01 0.01 89 1019.4
20260507031505 44 341 0.0 0.0 0.00 0.01 0.01 88 1019.4
20260507031003 44 341 0.0 0.0 0.00 0.01 0.01 87 1019.4
20260507030459 44 341 0.0 0.0 0.00 0.01 0.01 86 1019.8
20260507025956 44 341 0.0 0.0 0.00 0.01 0.01 85 1019.4
20260507025453 45 341 0.0 0.0 0.00 0.01 0.01 84 1019.4
20260507024951 45 341 0.0 0.0 0.00 0.01 0.01 83 1019.4
20260507024448 45 341 0.0 0.0 0.00 0.01 0.01 84 1019.4
20260507023944 45 341 0.0 0.0 0.00 0.01 0.01 82 1019.4
20260507023440 46 341 0.0 0.0 0.00 0.01 0.01 82 1019.4
20260507022932 46 341 0.0 0.0 0.00 0.01 0.01 80 1019.4
20260507022429 46 341 0.0 0.0 0.00 0.01 0.01 79 1019.1
20260507021925 47 341 0.0 0.0 0.00 0.01 0.01 78 1019.4
20260507021420 47 341 0.0 0.0 0.00 0.01 0.01 76 1019.1
20260507020918 48 341 0.0 0.0 0.00 0.01 0.01 75 1019.1
20260507020415 48 341 0.0 0.0 0.00 0.01 0.01 73 1018.8
20260507015912 49 341 0.0 0.0 0.00 0.01 0.01 72 1018.8
20260507015410 49 341 0.0 0.0 0.00 0.01 0.01 70 1019.1
20260507014906 50 341 0.0 0.0 0.00 0.01 0.01 69 1019.1
20260507014403 50 341 0.0 0.0 0.00 0.01 0.01 66 1019.1
20260507013859 51 341 0.0 0.0 0.00 0.01 0.01 64 1018.8
20260507013356 52 341 0.0 0.0 0.00 0.01 0.01 62 1018.8
20260507012854 53 341 0.0 0.0 0.00 0.01 0.01 58 1018.8
20260507012349 53 341 0.0 0.0 0.00 0.01 0.01 57 1018.8
20260507011847 54 341 0.0 0.0 0.00 0.01 0.01 57 1018.4
20260507011344 54 341 0.0 0.0 0.00 0.01 0.01 51 1018.4
20260507010838 55 341 0.0 0.0 0.00 0.01 0.01 55 1018.4
20260507010334 56 341 0.0 0.0 0.00 0.01 0.01 47 1018.4
20260507005831 56 341 0.0 0.0 0.00 0.01 0.01 49 1018.1
20260507005327 57 341 0.0 0.0 0.00 0.01 0.01 48 1018.1
20260507004819 57 341 0.0 0.0 0.00 0.01 0.01 45 1018.1
20260507004316 57 351 0.0 0.0 0.00 0.01 0.01 43 1018.1
20260507003813 57 13 3.0 3.0 0.00 0.01 0.01 42 1018.1
20260507003308 58 346 0.0 0.0 0.00 0.01 0.01 43 1018.1
20260507002803 58 343 0.0 0.0 0.00 0.01 0.01 42 1018.1
20260507002259 58 351 2.0 2.0 0.00 0.01 0.01 41 1017.6
20260507001751 59 343 1.0 1.0 0.00 0.01 0.01 41 1017.6
20260507001249 59 326 3.0 3.0 0.00 0.01 0.01 41 1017.3
20260507000745 59 336 3.0 3.0 0.00 0.01 0.01 41 1017.3
20260507000240 59 354 3.0 3.0 0.00 0.01 0.01 40 1017.3
20260506235738 59 345 1.0 1.0 0.00 0.01 0.01 39 1017.6
20260506235232 60 343 3.0 3.0 0.00 0.01 0.01 39 1017.6
20260506234730 60 347 2.0 2.0 0.00 0.01 0.01 39 1017.3
20260506234227 60 333 1.0 2.0 0.00 0.01 0.01 40 1017.3
20260506233724 60 336 3.0 3.0 0.00 0.01 0.01 39 1017.3
20260506233221 60 339 3.0 3.0 0.00 0.01 0.01 38 1017.0
20260506232717 60 355 1.0 1.0 0.00 0.01 0.01 38 1017.3
20260506232212 60 347 2.0 2.0 0.00 0.01 0.01 39 1017.3
20260506231710 60 341 2.0 2.0 0.00 0.01 0.01 39 1017.3
20260506231209 61 327 2.0 3.0 0.00 0.01 0.01 39 1017.3
20260506230705 61 34 2.0 3.0 0.00 0.01 0.01 37 1017.3
20260506230202 60 25 6.0 7.0 0.00 0.01 0.01 38 1017.3
20260506225658 60 13 3.0 5.0 0.00 0.01 0.01 38 1017.3
20260506225155 60 337 2.0 2.0 0.00 0.01 0.01 37 1017.3
20260506224651 61 320 6.0 6.0 0.00 0.01 0.01 36 1017.3
20260506224147 61 11 3.0 3.0 0.00 0.01 0.01 38 1017.3
20260506223644 61 324 3.0 2.0 0.00 0.01 0.01 39 1017.3
20260506223140 61 46 4.0 5.0 0.00 0.01 0.01 38 1017.3
20260506222637 61 349 2.0 2.0 0.00 0.01 0.01 38 1017.3
20260506222133 61 82 4.0 6.0 0.00 0.01 0.01 38 1017.3
20260506221631 61 24 3.0 3.0 0.00 0.01 0.01 38 1017.3
20260506221129 62 65 4.0 5.0 0.00 0.01 0.01 37 1017.0
20260506220625 61 65 5.0 7.0 0.00 0.01 0.01 38 1017.3
20260506220120 61 338 5.0 6.0 0.00 0.01 0.01 38 1017.3
20260506215618 62 342 3.0 3.0 0.00 0.01 0.01 37 1017.3
20260506215113 62 324 4.0 5.0 0.00 0.01 0.01 35 1017.3
20260506214611 62 359 3.0 3.0 0.00 0.01 0.01 34 1017.3
20260506214108 63 343 3.0 5.0 0.00 0.01 0.01 34 1017.3
20260506213606 63 292 2.0 2.0 0.00 0.01 0.01 35 1017.3
20260506213103 63 341 2.0 2.0 0.00 0.01 0.01 35 1017.3
20260506212600 62 66 2.0 3.0 0.00 0.01 0.01 34 1017.3
20260506212054 63 314 5.0 6.0 0.00 0.01 0.01 34 1017.3
20260506211550 62 332 1.0 1.0 0.00 0.01 0.01 35 1017.3
20260506211048 62 333 5.0 6.0 0.00 0.01 0.01 33 1017.3
20260506210544 63 305 4.0 5.0 0.00 0.01 0.01 33 1017.3
20260506210041 63 15 7.0 7.0 0.00 0.01 0.01 37 1017.3
20260506205537 63 64 3.0 3.0 0.00 0.01 0.01 35 1017.6
20260506205032 63 345 3.0 3.0 0.00 0.01 0.01 35 1017.6
20260506204531 64 104 3.0 3.0 0.00 0.01 0.01 35 1017.3
20260506204028 63 305 0.0 0.0 0.00 0.01 0.01 33 1017.6
20260506203526 64 302 3.0 5.0 0.00 0.01 0.01 36 1017.6
20260506203022 63 330 3.0 3.0 0.00 0.01 0.01 35 1017.6
20260506202520 64 30 4.0 5.0 0.00 0.01 0.01 35 1018.1
20260506202016 63 10 1.0 1.0 0.00 0.01 0.01 36 1018.1
20260506201514 63 323 2.0 1.0 0.00 0.01 0.01 36 1018.1
20260506201010 63 358 5.0 7.0 0.00 0.01 0.01 36 1018.4
20260506200507 62 120 3.0 6.0 0.00 0.01 0.01 37 1018.4
20260506200003 62 354 5.0 7.0 0.00 0.01 0.01 37 1018.1
20260506195500 62 348 4.0 6.0 0.00 0.01 0.01 40 1018.4
20260506194955 62 344 1.0 2.0 0.00 0.01 0.01 38 1018.4
20260506194453 63 352 1.0 1.0 0.00 0.01 0.01 41 1018.8
20260506193945 63 341 3.0 2.0 0.00 0.01 0.01 38 1018.4
20260506193442 63 359 6.0 7.0 0.00 0.01 0.01 38 1018.4
20260506192939 63 332 2.0 2.0 0.00 0.01 0.01 38 1018.4
20260506192436 62 98 6.0 8.0 0.00 0.01 0.01 37 1018.8
20260506191932 62 331 4.0 6.0 0.00 0.01 0.01 37 1019.1
20260506191429 61 11 2.0 3.0 0.00 0.01 0.01 40 1019.1
20260506190925 62 337 5.0 5.0 0.00 0.01 0.01 39 1018.8
20260506190421 62 321 5.0 6.0 0.00 0.01 0.01 38 1018.8
20260506185913 62 342 6.0 7.0 0.00 0.01 0.01 39 1019.1
20260506185410 61 40 2.0 2.0 0.00 0.01 0.01 39 1018.8
20260506184908 62 23 3.0 2.0 0.00 0.01 0.01 36 1019.1
20260506184404 62 26 4.0 5.0 0.00 0.01 0.01 36 1019.1
20260506183902 62 337 3.0 3.0 0.00 0.01 0.01 41 1019.1
20260506183357 62 273 3.0 3.0 0.00 0.01 0.01 39 1019.1
20260506182854 60 354 1.0 1.0 0.00 0.01 0.01 42 1019.4
20260506182351 61 335 5.0 6.0 0.00 0.01 0.01 37 1019.1
20260506181848 61 11 3.0 5.0 0.00 0.01 0.01 36 1019.4
20260506181346 61 30 4.0 5.0 0.00 0.01 0.01 36 1019.4
20260506180843 61 334 3.0 3.0 0.00 0.01 0.01 39 1019.4
20260506180339 61 329 4.0 5.0 0.00 0.01 0.01 39 1019.8
20260506175836 60 335 3.0 3.0 0.00 0.01 0.01 38 1019.8
20260506175333 59 309 4.0 3.0 0.00 0.01 0.01 41 1019.8
20260506174830 59 346 2.0 2.0 0.00 0.01 0.01 43 1019.4
20260506174327 59 11 3.0 5.0 0.00 0.01 0.01 44 1019.1
20260506173825 59 359 5.0 6.0 0.00 0.01 0.01 42 1019.4
20260506173321 59 335 1.0 1.0 0.00 0.01 0.01 45 1019.4
20260506172819 59 356 5.0 6.0 0.00 0.01 0.01 43 1019.1
20260506172315 58 340 4.0 7.0 0.00 0.01 0.01 44 1019.4
20260506171812 59 353 4.0 5.0 0.00 0.01 0.01 41 1019.1
20260506171309 59 334 3.0 5.0 0.00 0.01 0.01 46 1019.1
20260506170807 58 4 6.0 8.0 0.00 0.01 0.01 44 1019.4
20260506170303 59 55 7.0 8.0 0.00 0.01 0.01 43 1019.4
20260506165802 58 315 1.0 1.0 0.00 0.01 0.01 43 1019.1
20260506165259 58 78 3.0 6.0 0.00 0.01 0.01 48 1019.1
20260506164756 57 57 1.0 1.0 0.00 0.01 0.01 50 1019.4
20260506164252 57 138 4.0 5.0 0.00 0.01 0.01 51 1019.4